| time (UTC) | temp F | wind direction | speed MPH | gust MPH | rain 1hr in | rain 24hr in | rain mn in | humidity % | barometer mb |
| 20260905150504 | 72 | 325 | 7.0 | 18.0 | 0.00 | 0.02 | 0.02 | 45 | 1021.3 |
| 20260905150004 | 72 | 357 | 5.0 | 17.0 | 0.00 | 0.02 | 0.02 | 46 | 1021.3 |
| 20260905145504 | 72 | 43 | 3.0 | 6.0 | 0.00 | 0.02 | 0.02 | 46 | 1021.3 |
| 20260905145004 | 72 | 7 | 3.0 | 9.0 | 0.00 | 0.02 | 0.02 | 45 | 1021.3 |
| 20260905144504 | 72 | 327 | 7.0 | 12.0 | 0.00 | 0.02 | 0.02 | 44 | 1021.3 |
| 20260905143504 | 72 | 322 | 6.0 | 12.0 | 0.00 | 0.02 | 0.02 | 45 | 1021.2 |
| 20260905143004 | 73 | 310 | 6.0 | 13.0 | 0.00 | 0.02 | 0.02 | 44 | 1021.1 |
| 20260905142504 | 73 | 353 | 9.0 | 17.0 | 0.00 | 0.02 | 0.02 | 44 | 1021.2 |
| 20260905142004 | 73 | 13 | 3.0 | 8.0 | 0.00 | 0.02 | 0.02 | 44 | 1021.1 |
| 20260905141504 | 73 | 354 | 4.0 | 9.0 | 0.00 | 0.02 | 0.02 | 45 | 1021.1 |
| 20260905141005 | 73 | 13 | 6.0 | 14.0 | 0.00 | 0.02 | 0.02 | 45 | 1021.1 |
| 20260905140504 | 73 | 17 | 6.0 | 14.0 | 0.00 | 0.02 | 0.02 | 45 | 1021.2 |
| 20260905140004 | 73 | 315 | 6.0 | 13.0 | 0.00 | 0.02 | 0.02 | 47 | 1021.2 |
| 20260905135504 | 73 | 355 | 7.0 | 12.0 | 0.00 | 0.02 | 0.02 | 46 | 1021.1 |
| 20260905135004 | 74 | 347 | 6.0 | 13.0 | 0.00 | 0.02 | 0.02 | 47 | 1021.2 |
| 20260905134504 | 73 | 338 | 7.0 | 13.0 | 0.00 | 0.02 | 0.02 | 46 | 1021.2 |
| 20260905134004 | 73 | 328 | 8.0 | 13.0 | 0.00 | 0.02 | 0.02 | 45 | 1021.2 |
| 20260905133504 | 73 | 333 | 5.0 | 12.0 | 0.00 | 0.02 | 0.02 | 46 | 1021.1 |
| 20260905133004 | 73 | 10 | 8.0 | 13.0 | 0.00 | 0.02 | 0.02 | 45 | 1021.2 |
| 20260905132504 | 74 | 304 | 2.0 | 10.0 | 0.00 | 0.02 | 0.02 | 44 | 1021.2 |
| 20260905132004 | 73 | 25 | 7.0 | 13.0 | 0.00 | 0.02 | 0.02 | 45 | 1021.2 |
| 20260905131004 | 73 | 177 | 2.0 | 7.0 | 0.00 | 0.02 | 0.02 | 45 | 1021.1 |
| 20260905130504 | 73 | 295 | 4.0 | 12.0 | 0.00 | 0.02 | 0.02 | 48 | 1021.1 |
| 20260905130004 | 72 | 47 | 6.0 | 13.0 | 0.00 | 0.02 | 0.02 | 47 | 1021.1 |
| 20260905125504 | 73 | 325 | 5.0 | 15.0 | 0.00 | 0.02 | 0.02 | 49 | 1021.2 |
| 20260905125004 | 73 | 289 | 5.0 | 10.0 | 0.00 | 0.02 | 0.02 | 47 | 1021.2 |
| 20260905124504 | 73 | 352 | 4.0 | 13.0 | 0.00 | 0.02 | 0.02 | 47 | 1021.2 |
| 20260905124005 | 74 | 289 | 3.0 | 12.0 | 0.00 | 0.02 | 0.02 | 48 | 1021.2 |
| 20260905123504 | 74 | 297 | 6.0 | 12.0 | 0.00 | 0.02 | 0.02 | 47 | 1021.2 |
| 20260905123004 | 72 | 208 | 4.0 | 10.0 | 0.00 | 0.02 | 0.02 | 46 | 1021.2 |
| 20260905121504 | 73 | 213 | 6.0 | 14.0 | 0.00 | 0.02 | 0.02 | 46 | 1021.1 |
| 20260905121005 | 72 | 183 | 3.0 | 8.0 | 0.00 | 0.02 | 0.02 | 50 | 1021.0 |
| 20260905120503 | 72 | 276 | 5.0 | 12.0 | 0.00 | 0.02 | 0.02 | 50 | 1021.0 |
| 20260905120004 | 73 | 241 | 4.0 | 12.0 | 0.00 | 0.02 | 0.02 | 50 | 1021.0 |
| 20260905115004 | 72 | 218 | 2.0 | 9.0 | 0.00 | 0.02 | 0.02 | 50 | 1020.9 |
| 20260905114503 | 72 | 170 | 2.0 | 8.0 | 0.00 | 0.02 | 0.02 | 49 | 1020.9 |
| 20260905114004 | 71 | 4 | 7.0 | 12.0 | 0.00 | 0.02 | 0.02 | 53 | 1021.0 |
| 20260905113504 | 71 | 345 | 7.0 | 16.0 | 0.00 | 0.02 | 0.02 | 54 | 1021.1 |
| 20260905113004 | 70 | 337 | 3.0 | 12.0 | 0.00 | 0.02 | 0.02 | 53 | 1021.1 |
| 20260905112504 | 71 | 330 | 3.0 | 12.0 | 0.00 | 0.02 | 0.02 | 54 | 1021.1 |
| 20260905112003 | 70 | 354 | 5.0 | 12.0 | 0.00 | 0.02 | 0.02 | 53 | 1021.1 |
| 20260905111504 | 70 | 206 | 5.0 | 9.0 | 0.00 | 0.02 | 0.02 | 54 | 1021.1 |
| 20260905111005 | 70 | 296 | 6.0 | 12.0 | 0.00 | 0.02 | 0.02 | 56 | 1021.0 |
| 20260905110504 | 70 | 198 | 5.0 | 9.0 | 0.00 | 0.02 | 0.02 | 54 | 1021.0 |
| 20260905110004 | 71 | 341 | 9.0 | 13.0 | 0.00 | 0.02 | 0.02 | 54 | 1021.1 |
| 20260905105003 | 70 | 232 | 3.0 | 10.0 | 0.00 | 0.02 | 0.02 | 57 | 1020.9 |
| 20260905104504 | 70 | 317 | 8.0 | 15.0 | 0.00 | 0.02 | 0.02 | 56 | 1021.0 |
| 20260905104004 | 70 | 240 | 4.0 | 12.0 | 0.00 | 0.02 | 0.02 | 58 | 1021.1 |
| 20260905103504 | 70 | 199 | 6.0 | 12.0 | 0.00 | 0.02 | 0.02 | 57 | 1020.9 |
| 20260905103004 | 70 | 185 | 3.0 | 9.0 | 0.00 | 0.02 | 0.02 | 59 | 1020.8 |
| 20260905102504 | 70 | 283 | 3.0 | 7.0 | 0.00 | 0.02 | 0.02 | 62 | 1020.8 |
| 20260905102004 | 69 | 236 | 7.0 | 14.0 | 0.00 | 0.02 | 0.02 | 61 | 1020.7 |
| 20260905101504 | 68 | 324 | 3.0 | 8.0 | 0.00 | 0.02 | 0.02 | 62 | 1020.9 |
| 20260905101004 | 68 | 346 | 3.0 | 9.0 | 0.00 | 0.02 | 0.02 | 62 | 1020.9 |
| 20260905100504 | 68 | 216 | 2.0 | 14.0 | 0.00 | 0.02 | 0.02 | 63 | 1020.9 |
| 20260905100004 | 68 | 334 | 9.0 | 14.0 | 0.00 | 0.02 | 0.02 | 62 | 1021.0 |
| 20260905095004 | 69 | 333 | 3.0 | 8.0 | 0.00 | 0.02 | 0.02 | 63 | 1020.9 |
| 20260905093504 | 68 | 334 | 6.0 | 12.0 | 0.00 | 0.02 | 0.02 | 65 | 1021.0 |
| 20260905093005 | 68 | 332 | 5.0 | 12.0 | 0.00 | 0.02 | 0.02 | 64 | 1020.9 |
| 20260905092504 | 67 | 330 | 5.0 | 10.0 | 0.00 | 0.02 | 0.02 | 66 | 1020.9 |
| 20260905092004 | 66 | 242 | 3.0 | 8.0 | 0.00 | 0.02 | 0.02 | 68 | 1020.9 |
| 20260905091504 | 65 | 354 | 5.0 | 12.0 | 0.00 | 0.02 | 0.02 | 67 | 1021.0 |
| 20260905091004 | 65 | 256 | 2.0 | 10.0 | 0.00 | 0.02 | 0.02 | 69 | 1020.9 |
| 20260905090503 | 66 | 331 | 5.0 | 10.0 | 0.00 | 0.02 | 0.02 | 68 | 1020.8 |
| 20260905085504 | 66 | 307 | 2.0 | 10.0 | 0.00 | 0.02 | 0.02 | 71 | 1020.5 |
| 20260905084004 | 66 | 339 | 2.0 | 8.0 | 0.00 | 0.02 | 0.02 | 73 | 1020.4 |
| 20260905083504 | 65 | 14 | 4.0 | 10.0 | 0.00 | 0.02 | 0.02 | 73 | 1020.3 |
| 20260905083004 | 65 | 357 | 6.0 | 12.0 | 0.00 | 0.02 | 0.02 | 72 | 1020.3 |
| 20260905082504 | 67 | 8 | 5.0 | 12.0 | 0.00 | 0.02 | 0.02 | 71 | 1020.2 |
| 20260905082003 | 67 | 350 | 3.0 | 7.0 | 0.00 | 0.02 | 0.02 | 70 | 1020.1 |
| 20260905081005 | 65 | 220 | 2.0 | 6.0 | 0.00 | 0.02 | 0.02 | 74 | 1020.1 |
| 20260905080503 | 65 | 317 | 2.0 | 9.0 | 0.00 | 0.02 | 0.02 | 75 | 1020.1 |
| 20260905080003 | 65 | 318 | 6.0 | 10.0 | 0.00 | 0.02 | 0.02 | 74 | 1020.0 |
| 20260905074504 | 65 | 190 | 1.0 | 8.0 | 0.00 | 0.02 | 0.02 | 79 | 1019.9 |
| 20260905074004 | 64 | 189 | 3.0 | 7.0 | 0.00 | 0.02 | 0.02 | 80 | 1019.9 |
| 20260905073504 | 64 | 215 | 1.0 | 9.0 | 0.00 | 0.02 | 0.02 | 80 | 1019.9 |
| 20260905073004 | 64 | 250 | 4.0 | 8.0 | 0.00 | 0.02 | 0.02 | 80 | 1019.8 |
| 20260905072503 | 64 | 210 | 1.0 | 3.0 | 0.00 | 0.02 | 0.02 | 81 | 1019.8 |
| 20260905072003 | 64 | 343 | 1.0 | 3.0 | 0.00 | 0.02 | 0.02 | 82 | 1019.8 |
| 20260905071005 | 63 | 205 | 3.0 | 7.0 | 0.00 | 0.02 | 0.02 | 83 | 1019.7 |
| 20260905070504 | 62 | 217 | 0.0 | 2.0 | 0.00 | 0.02 | 0.02 | 84 | 1019.6 |
| 20260905070004 | 62 | 217 | 0.0 | 3.0 | 0.00 | 0.02 | 0.02 | 84 | 1019.7 |
| 20260905065504 | 62 | 217 | 3.0 | 5.0 | 0.00 | 0.02 | 0.02 | 83 | 1019.6 |
| 20260905065003 | 62 | 223 | 4.0 | 8.0 | 0.00 | 0.02 | 0.02 | 83 | 1019.6 |
| 20260905064504 | 63 | 210 | 2.0 | 3.0 | 0.00 | 0.02 | 0.02 | 84 | 1019.5 |
| 20260905064004 | 62 | 217 | 0.0 | 2.0 | 0.00 | 0.02 | 0.02 | 85 | 1019.6 |
| 20260905063504 | 61 | 219 | 0.0 | 2.0 | 0.00 | 0.02 | 0.02 | 86 | 1019.6 |
| 20260905063004 | 61 | 220 | 1.0 | 3.0 | 0.00 | 0.02 | 0.02 | 85 | 1019.6 |
| 20260905062504 | 61 | 266 | 2.0 | 3.0 | 0.00 | 0.02 | 0.02 | 85 | 1019.6 |
| 20260905062003 | 61 | 277 | 2.0 | 3.0 | 0.00 | 0.02 | 0.02 | 86 | 1019.5 |
| 20260905061504 | 61 | 217 | 0.0 | 1.0 | 0.00 | 0.02 | 0.02 | 86 | 1019.4 |
| 20260905061004 | 60 | 217 | 1.0 | 3.0 | 0.00 | 0.02 | 0.02 | 87 | 1019.3 |
| 20260905060504 | 60 | 211 | 2.0 | 3.0 | 0.00 | 0.02 | 0.02 | 87 | 1019.1 |
| 20260905060004 | 60 | 208 | 1.0 | 3.0 | 0.00 | 0.02 | 0.02 | 86 | 1019.0 |
| 20260905055504 | 60 | 211 | 0.0 | 0.0 | 0.00 | 0.02 | 0.02 | 86 | 1019.0 |
| 20260905055004 | 60 | 211 | 0.0 | 0.0 | 0.00 | 0.02 | 0.02 | 88 | 1019.1 |
| 20260905054504 | 59 | 211 | 0.0 | 0.0 | 0.00 | 0.02 | 0.02 | 88 | 1019.0 |
| 20260905054004 | 58 | 211 | 0.0 | 0.0 | 0.00 | 0.02 | 0.02 | 88 | 1018.9 |
| 20260905053504 | 58 | 211 | 0.0 | 0.0 | 0.00 | 0.02 | 0.02 | 87 | 1018.9 |
| 20260905053003 | 58 | 211 | 0.0 | 0.0 | 0.00 | 0.02 | 0.02 | 87 | 1018.8 |
| 20260905052504 | 59 | 211 | 0.0 | 2.0 | 0.00 | 0.02 | 0.02 | 87 | 1018.7 |
| 20260905052004 | 59 | 211 | 0.0 | 0.0 | 0.00 | 0.02 | 0.02 | 87 | 1018.7 |
| 20260905051504 | 59 | 211 | 0.0 | 0.0 | 0.00 | 0.02 | 0.02 | 87 | 1018.7 |
| 20260905051004 | 59 | 211 | 0.0 | 2.0 | 0.00 | 0.02 | 0.02 | 87 | 1018.6 |
| 20260905050504 | 59 | 211 | 0.0 | 2.0 | 0.00 | 0.02 | 0.02 | 87 | 1018.5 |
| 20260905050005 | 59 | 211 | 0.0 | 2.0 | 0.00 | 0.02 | 0.02 | 87 | 1018.5 |
| 20260905045506 | 59 | 211 | 0.0 | 2.0 | 0.00 | 0.02 | 0.02 | 86 | 1018.4 |
| 20260905044505 | 59 | 211 | 0.0 | 0.0 | 0.00 | 0.02 | 0.02 | 86 | 1018.4 |
| 20260905044005 | 59 | 211 | 0.0 | 2.0 | 0.00 | 0.02 | 0.02 | 86 | 1018.2 |
| 20260905043505 | 60 | 211 | 0.0 | 2.0 | 0.00 | 0.02 | 0.02 | 86 | 1018.2 |
| 20260905043005 | 60 | 211 | 0.0 | 2.0 | 0.00 | 0.02 | 0.02 | 86 | 1018.2 |
| 20260905042005 | 60 | 211 | 1.0 | 2.0 | 0.00 | 0.02 | 0.02 | 86 | 1018.0 |
| 20260905041505 | 60 | 211 | 0.0 | 1.0 | 0.00 | 0.02 | 0.02 | 86 | 1018.0 |
| 20260905041006 | 59 | 211 | 0.0 | 2.0 | 0.00 | 0.02 | 0.02 | 86 | 1018.0 |
| 20260905040505 | 59 | 211 | 0.0 | 2.0 | 0.00 | 0.02 | 0.02 | 86 | 1017.9 |
| 20260905040006 | 59 | 211 | 2.0 | 3.0 | 0.00 | 0.02 | 0.02 | 86 | 1017.8 |
| 20260905035505 | 59 | 209 | 1.0 | 3.0 | 0.00 | 0.02 | 0.02 | 86 | 1017.8 |
| 20260905035006 | 59 | 209 | 2.0 | 3.0 | 0.00 | 0.02 | 0.02 | 86 | 1017.8 |
| 20260905034005 | 59 | 207 | 1.0 | 2.0 | 0.00 | 0.02 | 0.02 | 87 | 1017.8 |
| 20260905033504 | 59 | 206 | 1.0 | 2.0 | 0.00 | 0.02 | 0.02 | 87 | 1017.8 |
| 20260905033004 | 59 | 206 | 0.0 | 1.0 | 0.00 | 0.02 | 0.02 | 87 | 1017.7 |
| 20260905032504 | 59 | 206 | 0.0 | 2.0 | 0.00 | 0.02 | 0.02 | 87 | 1017.7 |
| 20260905031505 | 59 | 205 | 1.0 | 1.0 | 0.00 | 0.02 | 0.02 | 88 | 1017.5 |
| 20260905030505 | 58 | 205 | 0.0 | 0.0 | 0.00 | 0.02 | 0.02 | 88 | 1017.5 |
| 20260905030004 | 58 | 205 | 0.0 | 2.0 | 0.00 | 0.02 | 0.02 | 88 | 1017.5 |
| 20260905025504 | 58 | 205 | 0.0 | 2.0 | 0.00 | 0.02 | 0.02 | 88 | 1017.4 |
| 20260905024504 | 58 | 205 | 1.0 | 2.0 | 0.00 | 0.02 | 0.02 | 88 | 1017.2 |
| 20260905024005 | 58 | 205 | 0.0 | 1.0 | 0.00 | 0.02 | 0.02 | 88 | 1017.0 |
| 20260905023504 | 58 | 205 | 0.0 | 1.0 | 0.00 | 0.02 | 0.02 | 88 | 1017.1 |
| 20260905023004 | 58 | 205 | 1.0 | 1.0 | 0.00 | 0.02 | 0.02 | 88 | 1017.2 |
| 20260905021505 | 58 | 205 | 1.0 | 1.0 | 0.01 | 0.02 | 0.02 | 87 | 1017.1 |
| 20260905021005 | 58 | 205 | 0.0 | 2.0 | 0.01 | 0.02 | 0.02 | 87 | 1017.1 |
| 20260905020004 | 58 | 205 | 0.0 | 2.0 | 0.01 | 0.02 | 0.02 | 87 | 1017.0 |
| 20260905015504 | 58 | 205 | 0.0 | 2.0 | 0.01 | 0.02 | 0.02 | 87 | 1016.9 |
| 20260905015005 | 58 | 205 | 1.0 | 3.0 | 0.02 | 0.02 | 0.02 | 86 | 1016.8 |
| 20260905014005 | 59 | 202 | 1.0 | 2.0 | 0.02 | 0.02 | 0.02 | 86 | 1016.9 |
| 20260905013504 | 59 | 202 | 1.0 | 2.0 | 0.02 | 0.02 | 0.02 | 85 | 1016.9 |
| 20260905013004 | 59 | 201 | 2.0 | 3.0 | 0.02 | 0.02 | 0.02 | 85 | 1016.9 |
| 20260905012504 | 59 | 294 | 0.0 | 2.0 | 0.01 | 0.01 | 0.01 | 85 | 1017.1 |
| 20260905011005 | 59 | 288 | 1.0 | 2.0 | 0.01 | 0.01 | 0.01 | 83 | 1017.0 |
| 20260905010505 | 59 | 296 | 0.0 | 2.0 | 0.01 | 0.01 | 0.01 | 82 | 1017.2 |
| 20260905010005 | 60 | 296 | 1.0 | 2.0 | 0.01 | 0.01 | 0.01 | 81 | 1017.0 |
| 20260905005505 | 60 | 331 | 0.0 | 3.0 | 0.01 | 0.01 | 0.01 | 80 | 1016.9 |
| 20260905005004 | 60 | 344 | 1.0 | 5.0 | 0.00 | 0.00 | 0.00 | 79 | 1016.7 |
| 20260905004504 | 61 | 275 | 2.0 | 3.0 | 0.00 | 0.00 | 0.00 | 77 | 1016.5 |
| 20260905004005 | 61 | 335 | 0.0 | 2.0 | 0.00 | 0.00 | 0.00 | 76 | 1016.3 |
| 20260905003505 | 61 | 335 | 1.0 | 3.0 | 0.00 | 0.00 | 0.00 | 76 | 1016.4 |
| 20260905003004 | 61 | 311 | 3.0 | 5.0 | 0.00 | 0.00 | 0.00 | 76 | 1016.5 |
| 20260905002504 | 61 | 243 | 1.0 | 3.0 | 0.00 | 0.00 | 0.00 | 76 | 1016.6 |
| 20260905002005 | 61 | 233 | 1.0 | 2.0 | 0.00 | 0.00 | 0.00 | 76 | 1016.3 |
| 20260905001505 | 61 | 328 | 0.0 | 2.0 | 0.00 | 0.00 | 0.00 | 76 | 1016.5 |
| 20260905001005 | 61 | 328 | 0.0 | 2.0 | 0.00 | 0.00 | 0.00 | 76 | 1016.5 |
| 20260905000005 | 62 | 0 | 1.0 | 5.0 | 0.00 | 0.00 | 0.00 | 76 | 1016.4 |
| 20260904235505 | 62 | 335 | 3.0 | 8.0 | 0.00 | 0.00 | 0.00 | 76 | 1016.4 |
| 20260904234505 | 62 | 350 | 2.0 | 5.0 | 0.00 | 0.00 | 0.00 | 76 | 1016.3 |
| 20260904234004 | 62 | 6 | 4.0 | 8.0 | 0.00 | 0.00 | 0.00 | 76 | 1016.3 |
| 20260904233504 | 62 | 358 | 2.0 | 7.0 | 0.00 | 0.00 | 0.00 | 76 | 1016.1 |
| 20260904233004 | 62 | 6 | 3.0 | 3.0 | 0.00 | 0.00 | 0.00 | 76 | 1016.0 |
| 20260904232504 | 62 | 48 | 4.0 | 7.0 | 0.00 | 0.00 | 0.00 | 76 | 1015.9 |
| 20260904232005 | 62 | 354 | 5.0 | 12.0 | 0.00 | 0.00 | 0.00 | 76 | 1015.9 |
| 20260904231504 | 62 | 356 | 5.0 | 8.0 | 0.00 | 0.00 | 0.00 | 76 | 1015.9 |
| 20260904231006 | 62 | 341 | 1.0 | 7.0 | 0.00 | 0.00 | 0.00 | 77 | 1015.9 |
| 20260904230504 | 62 | 332 | 2.0 | 3.0 | 0.00 | 0.00 | 0.00 | 77 | 1016.1 |
| 20260904230004 | 62 | 304 | 3.0 | 10.0 | 0.00 | 0.00 | 0.00 | 77 | 1016.2 |
| 20260904225504 | 62 | 17 | 5.0 | 12.0 | 0.00 | 0.00 | 0.00 | 77 | 1016.2 |
| 20260904225005 | 62 | 329 | 5.0 | 10.0 | 0.00 | 0.00 | 0.00 | 76 | 1016.2 |
| 20260904224504 | 62 | 7 | 5.0 | 14.0 | 0.00 | 0.00 | 0.00 | 77 | 1016.2 |
| 20260904223504 | 62 | 25 | 6.0 | 10.0 | 0.00 | 0.00 | 0.00 | 77 | 1016.0 |
| 20260904223004 | 63 | 34 | 5.0 | 10.0 | 0.00 | 0.00 | 0.00 | 77 | 1016.1 |
| 20260904222505 | 63 | 15 | 5.0 | 10.0 | 0.00 | 0.00 | 0.00 | 76 | 1016.1 |
| 20260904222004 | 64 | 10 | 5.0 | 14.0 | 0.00 | 0.00 | 0.00 | 75 | 1016.0 |
| 20260904221504 | 64 | 355 | 4.0 | 6.0 | 0.00 | 0.00 | 0.00 | 75 | 1015.7 |
| 20260904221005 | 64 | 32 | 5.0 | 8.0 | 0.00 | 0.00 | 0.00 | 74 | 1015.6 |
| 20260904220504 | 65 | 9 | 3.0 | 9.0 | 0.00 | 0.00 | 0.00 | 75 | 1015.6 |
| 20260904220004 | 65 | 48 | 7.0 | 13.0 | 0.00 | 0.00 | 0.00 | 74 | 1015.8 |
| 20260904215504 | 65 | 23 | 5.0 | 12.0 | 0.00 | 0.00 | 0.00 | 74 | 1016.0 |
| 20260904215004 | 66 | 358 | 10.0 | 16.0 | 0.00 | 0.00 | 0.00 | 73 | 1015.8 |
| 20260904214504 | 66 | 358 | 10.0 | 20.0 | 0.00 | 0.00 | 0.00 | 73 | 1015.8 |
| 20260904214005 | 67 | 6 | 5.0 | 13.0 | 0.00 | 0.00 | 0.00 | 72 | 1015.5 |
| 20260904213504 | 67 | 4 | 8.0 | 16.0 | 0.00 | 0.00 | 0.00 | 72 | 1015.6 |
| 20260904212504 | 68 | 12 | 9.0 | 18.0 | 0.00 | 0.00 | 0.00 | 71 | 1015.3 |
| 20260904212005 | 68 | 6 | 10.0 | 20.0 | 0.00 | 0.00 | 0.00 | 71 | 1015.2 |
| 20260904211005 | 70 | 24 | 12.0 | 25.0 | 0.00 | 0.00 | 0.00 | 68 | 1015.0 |
| 20260904210504 | 72 | 356 | 13.0 | 29.0 | 0.00 | 0.00 | 0.00 | 66 | 1014.7 |
| 20260904210004 | 74 | 12 | 10.0 | 20.0 | 0.00 | 0.00 | 0.00 | 63 | 1014.4 |
| 20260904205504 | 75 | 296 | 7.0 | 18.0 | 0.00 | 0.00 | 0.00 | 62 | 1014.1 |
| 20260904205005 | 75 | 303 | 2.0 | 9.0 | 0.00 | 0.00 | 0.00 | 62 | 1013.5 |
| 20260904204004 | 76 | 301 | 3.0 | 7.0 | 0.00 | 0.00 | 0.00 | 62 | 1013.5 |
| 20260904202504 | 76 | 268 | 1.0 | 5.0 | 0.00 | 0.00 | 0.00 | 62 | 1013.3 |
| 20260904201504 | 76 | 150 | 3.0 | 7.0 | 0.00 | 0.00 | 0.00 | 61 | 1013.2 |
| 20260904201005 | 76 | 291 | 3.0 | 9.0 | 0.00 | 0.00 | 0.00 | 61 | 1013.1 |
| 20260904200504 | 76 | 310 | 5.0 | 12.0 | 0.00 | 0.00 | 0.00 | 61 | 1013.1 |
| 20260904195504 | 76 | 272 | 2.0 | 5.0 | 0.00 | 0.00 | 0.00 | 61 | 1012.9 |
| 20260904195004 | 76 | 152 | 1.0 | 8.0 | 0.00 | 0.00 | 0.00 | 61 | 1012.8 |
| 20260904194504 | 76 | 273 | 1.0 | 3.0 | 0.00 | 0.00 | 0.00 | 62 | 1012.7 |
| 20260904194004 | 76 | 243 | 3.0 | 8.0 | 0.00 | 0.00 | 0.00 | 61 | 1012.7 |
| 20260904193506 | 76 | 168 | 1.0 | 6.0 | 0.00 | 0.00 | 0.00 | 61 | 1012.6 |
| 20260904193005 | 76 | 274 | 2.0 | 5.0 | 0.00 | 0.00 | 0.00 | 62 | 1012.6 |
| 20260904192504 | 75 | 315 | 3.0 | 8.0 | 0.00 | 0.00 | 0.00 | 62 | 1012.6 |
| 20260904192005 | 75 | 274 | 1.0 | 5.0 | 0.00 | 0.00 | 0.00 | 62 | 1012.5 |
| 20260904191506 | 76 | 275 | 1.0 | 3.0 | 0.00 | 0.00 | 0.00 | 61 | 1012.4 |
| 20260904191005 | 76 | 269 | 1.0 | 3.0 | 0.00 | 0.00 | 0.00 | 61 | 1012.4 |
| 20260904190504 | 77 | 213 | 1.0 | 6.0 | 0.00 | 0.00 | 0.00 | 60 | 1012.3 |
| 20260904190004 | 77 | 198 | 2.0 | 6.0 | 0.00 | 0.00 | 0.00 | 58 | 1012.3 |
| 20260904185004 | 77 | 219 | 2.0 | 7.0 | 0.00 | 0.00 | 0.00 | 58 | 1012.2 |
| 20260904184504 | 78 | 246 | 2.0 | 5.0 | 0.00 | 0.00 | 0.00 | 57 | 1012.2 |
| 20260904184004 | 78 | 238 | 1.0 | 7.0 | 0.00 | 0.00 | 0.00 | 57 | 1012.2 |
| 20260904183505 | 78 | 249 | 1.0 | 3.0 | 0.00 | 0.00 | 0.00 | 56 | 1012.1 |
| 20260904183005 | 79 | 282 | 1.0 | 7.0 | 0.00 | 0.00 | 0.00 | 56 | 1012.1 |
| 20260904182504 | 79 | 236 | 2.0 | 5.0 | 0.00 | 0.00 | 0.00 | 55 | 1012.2 |
| 20260904182005 | 79 | 45 | 2.0 | 13.0 | 0.00 | 0.00 | 0.00 | 55 | 1012.1 |
| 20260904181505 | 79 | 314 | 2.0 | 16.0 | 0.00 | 0.00 | 0.00 | 54 | 1012.1 |
| 20260904180504 | 79 | 192 | 2.0 | 13.0 | 0.00 | 0.00 | 0.00 | 54 | 1012.1 |
| 20260904180006 | 79 | 299 | 2.0 | 12.0 | 0.00 | 0.00 | 0.00 | 54 | 1011.9 |
| 20260904175004 | 80 | 324 | 3.0 | 10.0 | 0.00 | 0.00 | 0.00 | 53 | 1012.1 |
| 20260904174506 | 80 | 153 | 3.0 | 7.0 | 0.00 | 0.00 | 0.00 | 53 | 1012.0 |
| 20260904174004 | 80 | 211 | 2.0 | 10.0 | 0.00 | 0.00 | 0.00 | 53 | 1011.9 |
| 20260904173504 | 80 | 224 | 2.0 | 9.0 | 0.00 | 0.00 | 0.00 | 52 | 1011.9 |
| 20260904172504 | 80 | 188 | 3.0 | 7.0 | 0.00 | 0.00 | 0.00 | 51 | 1011.8 |
| 20260904172004 | 80 | 26 | 2.0 | 5.0 | 0.00 | 0.00 | 0.00 | 51 | 1011.8 |
| 20260904171504 | 80 | 326 | 2.0 | 5.0 | 0.00 | 0.00 | 0.00 | 52 | 1011.8 |
| 20260904171005 | 81 | 289 | 5.0 | 8.0 | 0.00 | 0.00 | 0.00 | 51 | 1011.8 |
| 20260904170504 | 80 | 140 | 2.0 | 9.0 | 0.00 | 0.00 | 0.00 | 52 | 1011.8 |
| 20260904170004 | 81 | 299 | 4.0 | 10.0 | 0.00 | 0.00 | 0.00 | 51 | 1011.8 |
| 20260904165504 | 81 | 249 | 3.0 | 9.0 | 0.00 | 0.00 | 0.00 | 51 | 1011.8 |
| 20260904165005 | 81 | 261 | 4.0 | 12.0 | 0.00 | 0.00 | 0.00 | 51 | 1012.0 |
| 20260904164505 | 81 | 239 | 2.0 | 9.0 | 0.00 | 0.00 | 0.00 | 51 | 1011.9 |
| 20260904163505 | 81 | 204 | 4.0 | 10.0 | 0.00 | 0.00 | 0.00 | 52 | 1012.0 |
| 20260904163005 | 81 | 330 | 3.0 | 7.0 | 0.00 | 0.00 | 0.00 | 52 | 1011.9 |
| 20260904162505 | 81 | 283 | 5.0 | 12.0 | 0.00 | 0.00 | 0.00 | 52 | 1012.0 |
| 20260904161504 | 81 | 237 | 3.0 | 12.0 | 0.00 | 0.00 | 0.00 | 52 | 1011.9 |
| 20260904161005 | 82 | 219 | 3.0 | 6.0 | 0.00 | 0.00 | 0.00 | 52 | 1012.0 |
| 20260904160504 | 81 | 327 | 2.0 | 7.0 | 0.00 | 0.00 | 0.00 | 52 | 1011.9 |
| 20260904160004 | 81 | 245 | 3.0 | 9.0 | 0.00 | 0.00 | 0.00 | 51 | 1011.9 |
| 20260904155504 | 81 | 217 | 4.0 | 9.0 | 0.00 | 0.00 | 0.00 | 51 | 1011.9 |
| 20260904155004 | 82 | 221 | 6.0 | 17.0 | 0.00 | 0.00 | 0.00 | 50 | 1011.9 |
| 20260904154504 | 82 | 233 | 6.0 | 12.0 | 0.00 | 0.00 | 0.00 | 50 | 1011.9 |
| 20260904154004 | 83 | 285 | 3.0 | 12.0 | 0.00 | 0.00 | 0.00 | 50 | 1011.9 |
| 20260904153504 | 83 | 208 | 5.0 | 12.0 | 0.00 | 0.00 | 0.00 | 50 | 1011.8 |
| 20260904153005 | 83 | 220 | 3.0 | 12.0 | 0.00 | 0.00 | 0.00 | 50 | 1011.7 |
| 20260904152504 | 83 | 225 | 4.0 | 12.0 | 0.00 | 0.00 | 0.00 | 50 | 1011.7 |
| 20260904152004 | 83 | 203 | 4.0 | 12.0 | 0.00 | 0.00 | 0.00 | 50 | 1011.7 |
| 20260904151005 | 83 | 248 | 2.0 | 8.0 | 0.00 | 0.00 | 0.00 | 52 | 1011.7 |